[[{"header":{"parameterUnit":"m.s-1","parameterCategory":1,"la1":30.2991,"la2":30.254,"lo1":-89.0895,"lo2":-89.0444,"dy":0.0017,"dx":0.0017,"nx":28,"ny":28,"refTime":"2025-03-22T03:00:00:Z","depth":0,"parameterNumber":2,"parameterNumberName":"U-component_of_WINDS"},"data":[0,0,0,0,0,0,0,0,0,0,0,0,0,0,0,0,0,0,0,0,0,0,0,0,0,0,0,0,0,0,0,0,0,0,0,0,0,0,0,0,0,0,0,0,0,0,0,0,0,0,0,0,0,0,0,0,0,0,2.6502,2.6505,0,2.679,2.6793,2.6796,2.6787,2.6783,2.6779,2.6775,2.7078,2.709,2.7102,0,0,0,0,0,0,0,0,0,0,0,0,0,2.5952,2.5962,2.6502,2.6505,2.6509,2.6789,2.6793,2.6797,2.6788,2.6783,2.6778,2.6774,2.7075,2.7088,2.7103,0,0,0,0,0,0,0,0,0,0,0,0,0,2.6211,2.5966,2.6501,2.6538,2.6544,2.6788,2.6793,2.6798,2.6789,2.6783,2.6777,2.6771,2.707,2.7087,2.7105,2.7334,0,0,2.7159,2.7166,0,0,0,0,0,0,0,0,2.6196,2.6231,2.6529,2.6536,2.6543,2.6746,2.671,2.6978,2.679,2.6696,2.6775,2.6768,2.6973,2.6999,2.7066,2.7348,2.7361,2.716,2.7171,2.7179,2.7184,0,0,0,0,0,0,0,2.6178,2.6219,2.6616,2.6533,2.6542,2.6543,2.6573,2.6761,2.6865,2.6704,2.6704,2.6738,2.6976,2.7049,2.7073,2.7365,2.716,2.7175,2.7186,2.7193,2.7851,2.7857,0,0,0,0,0,0,2.6151,2.6204,2.6607,2.6624,2.6351,2.6557,2.6591,2.6687,2.6863,2.6884,2.6743,2.6736,2.7022,2.7052,2.7084,2.7364,2.7178,2.7195,2.7205,2.7844,2.7852,2.786,0,0,0,0,0,0,2.614,2.6187,2.6595,2.6414,2.6466,2.6573,2.6681,2.6696,2.6769,2.6892,2.6911,2.6797,2.7018,2.7059,2.7271,2.7374,2.7203,2.7219,2.7836,2.7846,2.7856,2.7925,0,0,0,0,0,0,2.6124,2.6183,2.6269,2.6416,2.6476,2.6776,2.6688,2.6706,2.6798,2.6793,2.6948,2.6969,2.7017,2.7245,2.7289,2.7395,2.7233,2.7827,2.7841,2.7853,2.7914,2.7936,2.7955,0,0,0,0,0,2.6104,2.6279,2.6274,2.6322,2.6585,2.6781,2.6816,2.6865,2.6806,2.6895,2.6975,2.6964,2.7355,2.7267,2.7316,2.7429,2.7821,2.7837,2.7852,2.7905,2.7932,2.7955,0,0,0,0,0,0,2.6145,2.6299,2.6295,2.6522,2.6638,2.6779,2.6893,2.6892,2.703,2.7019,2.7077,2.7112,2.7325,2.7399,2.7297,2.7661,2.7581,2.7607,2.7605,2.7631,2.7652,2.763,2.7248,0,0,0,0,0,2.6179,2.6323,2.6451,2.6639,2.6698,2.6785,2.6873,2.69,2.7024,2.7074,2.7169,2.7292,2.7443,2.7542,2.7687,2.7925,2.7959,2.8027,2.8048,2.8064,2.8086,2.8218,2.825,2.791,2.791,2.791,0,0,2.6254,2.6356,2.6443,2.665,2.6743,2.6893,2.6827,2.6988,2.7101,2.71,2.7305,2.7379,2.7521,2.7747,2.7851,2.7815,2.8188,2.8084,2.8096,2.8109,2.8237,2.8269,2.8298,2.7921,2.7919,2.7917,0,0,2.6465,2.6556,2.6723,2.6817,2.6959,2.7016,2.7056,2.7198,2.7246,2.7452,2.7455,2.7591,2.785,2.795,2.8035,2.8285,2.8281,2.8332,2.844,2.8568,2.8594,2.8618,2.8708,2.8739,2.8353,2.8353,2.8353,0,2.654,2.6763,2.6809,2.6971,2.7063,2.7066,2.7236,2.7327,2.751,2.7574,2.753,2.7855,2.795,2.82,2.826,2.8329,2.8378,2.8314,2.8586,2.8611,2.8634,2.872,2.8754,2.8358,2.8358,2.8357,2.8357,0,2.6849,2.7004,2.7122,2.7295,2.74,2.7566,2.7639,2.7741,2.776,2.7822,2.8033,2.8148,2.8317,2.8378,2.84,2.8632,2.8605,2.8573,2.8494,2.8671,2.8753,2.8786,2.8366,2.8364,2.8363,2.8361,0,0,2.7094,2.729,2.7332,2.7411,2.7567,2.769,2.7856,2.8019,2.8105,2.8232,2.8374,2.8592,2.8564,2.866,2.8693,2.8805,2.8996,2.876,2.8765,2.88,2.926,2.9283,2.932,2.8994,2.9001,2.9006,2.9248,0,2.7322,2.7614,2.766,2.7918,2.8063,2.8068,2.8214,2.8327,2.839,2.8524,2.8595,2.8749,2.8699,2.8758,2.8869,2.8949,2.909,2.8933,2.9129,2.9136,2.9093,2.9363,2.9387,2.961,2.9281,2.9286,2.929,0,2.7626,2.7758,2.8029,2.8165,2.8228,2.8357,2.851,2.8637,2.8767,2.8805,2.8913,2.8932,2.9108,2.9021,2.9265,2.9157,2.924,2.9292,2.9302,2.9323,2.9223,2.939,2.9683,2.9716,2.9341,2.9337,2.9333,0,2.7778,2.8023,2.8217,2.8284,2.8448,2.8539,2.8613,2.8736,2.883,2.8965,2.9028,2.9182,2.9267,2.9388,2.9449,2.938,2.9689,2.9607,2.9727,2.9726,2.9792,2.9787,3.0102,2.9846,2.9846,2.9845,2.9844,0,2.8027,2.8193,2.8287,2.8406,2.8593,2.8646,2.883,2.8902,2.9011,2.9146,2.9162,2.9289,2.9363,2.9502,2.9551,2.9746,2.9785,2.9822,2.9833,2.9821,2.9816,2.9876,2.9862,2.9854,2.9852,2.985,2.9849,0,2.8227,2.8297,2.8508,2.8646,2.8684,2.8816,2.8935,2.9053,2.9115,2.9286,2.9329,2.9429,2.9593,2.9666,2.9869,2.9903,3.0125,3.0125,3.008,3.0084,3.02,3.0188,3.0564,3.0617,3.0326,3.0329,3.0331,0,2.8382,2.8509,2.8659,2.8749,2.8824,2.897,2.9066,2.9124,2.9224,2.9381,2.948,2.9644,2.9778,3.0041,3.0133,3.0289,3.0293,3.0414,3.0317,3.03,3.0295,3.0286,3.03,3.0432,3.0434,3.0437,3.0439,0,2.8648,2.8676,2.8812,2.8961,2.9075,2.9195,2.9314,2.9388,2.9465,2.9577,2.9743,2.9847,3.0054,3.0217,3.0378,3.0457,3.0462,3.0469,3.0505,3.0493,3.0461,3.048,3.0128,3.046,3.0458,3.0456,3.0455,3.0454,2.8831,2.8944,2.9067,2.9219,2.9313,2.9424,2.954,2.9616,2.9755,2.9925,2.9952,3.013,3.0258,3.0475,3.056,3.0701,3.0672,3.0724,3.0738,3.075,3.0756,3.0438,3.0731,3.0731,3.073,3.073,3.0729,0,2.9098,2.9177,2.9316,2.9479,2.9599,2.959,2.9721,2.9823,2.9978,3.0095,3.0226,3.0418,3.0576,3.068,3.0841,3.0935,3.0941,3.0975,3.0969,3.0987,3.0773,3.0726,3.0967,3.0967,3.0967,3.0967,3.0967,3.0967,2.9251,2.9442,2.9484,2.9723,2.9803,2.9974,3.005,3.0152,3.0246,3.0458,3.0589,3.0654,3.0768,3.0936,3.1082,3.1109,3.1168,3.1203,3.1229,3.1027,3.1002,3.0978,3.0934,3.1215,3.1216,3.1431,3.1432,3.1434]},{"header":{"parameterUnit":"m.s-1","parameterCategory":1,"la1":30.2991,"la2":30.254,"lo1":-89.0895,"lo2":-89.0444,"dy":0.0017,"dx":0.0017,"nx":28,"ny":28,"refTime":"2025-03-22T03:00:00:Z","depth":0,"parameterNumber":3,"parameterNumberName":"V-component_of_WINDS"},"data":[0,0,0,0,0,0,0,0,0,0,0,0,0,0,0,0,0,0,0,0,0,0,0,0,0,0,0,0,0,0,0,0,0,0,0,0,0,0,0,0,0,0,0,0,0,0,0,0,0,0,0,0,0,0,0,0,0,0,0.0308,0.0308,0,0.0273,0.0272,0.0272,0.0221,0.0221,0.022,0.0219,0.0185,0.0185,0.0184,0,0,0,0,0,0,0,0,0,0,0,0,0,0.0334,0.0333,0.0308,0.0308,0.0308,0.0273,0.0272,0.0272,0.0222,0.0221,0.0219,0.0219,0.0185,0.0185,0.0184,0,0,0,0,0,0,0,0,0,0,0,0,0,0.0313,0.0333,0.0309,0.0278,0.0275,0.0273,0.0272,0.0272,0.0222,0.0221,0.0219,0.0218,0.0185,0.0185,0.0184,0.021,0,0,0.0184,0.0184,0,0,0,0,0,0,0,0,0.0314,0.0312,0.0283,0.028,0.0277,0.025,0.0269,0.0251,0.0222,0.0242,0.0219,0.0217,0.0208,0.0206,0.0202,0.0208,0.0207,0.0184,0.0184,0.0184,0.0184,0,0,0,0,0,0,0,0.0316,0.0313,0.0294,0.0283,0.0279,0.0267,0.0262,0.0265,0.0233,0.024,0.0237,0.0233,0.0206,0.0202,0.0201,0.0206,0.0184,0.0184,0.0184,0.0184,0.023,0.0231,0,0,0,0,0,0,0.0321,0.0315,0.0296,0.0293,0.0293,0.0267,0.0262,0.026,0.0233,0.0227,0.0234,0.0231,0.0203,0.0201,0.0199,0.0227,0.0184,0.0184,0.0184,0.0229,0.023,0.0232,0,0,0,0,0,0,0.0322,0.032,0.0297,0.0303,0.0299,0.0268,0.0266,0.026,0.0256,0.0228,0.0222,0.0236,0.0202,0.0199,0.0207,0.0225,0.0184,0.0183,0.0227,0.0229,0.0231,0.0282,0,0,0,0,0,0,0.0323,0.0321,0.033,0.0304,0.0299,0.0306,0.0267,0.026,0.0256,0.0251,0.0228,0.0223,0.0201,0.0207,0.0207,0.0224,0.0183,0.0225,0.0228,0.023,0.0279,0.0285,0.0291,0,0,0,0,0,0.0324,0.0347,0.0331,0.0329,0.031,0.0307,0.0304,0.0277,0.0258,0.0267,0.0248,0.0224,0.0222,0.0209,0.0208,0.0225,0.0224,0.0227,0.023,0.0276,0.0284,0.0291,0,0,0,0,0,0,0.0378,0.0343,0.0325,0.0339,0.0326,0.0298,0.0309,0.0287,0.0279,0.0275,0.0242,0.0238,0.0249,0.0237,0.0223,0.0247,0.022,0.0222,0.0255,0.0262,0.0269,0.0272,0.0183,0,0,0,0,0,0.0391,0.039,0.036,0.0376,0.037,0.0341,0.0338,0.0318,0.0303,0.0298,0.028,0.0267,0.0263,0.0262,0.0257,0.0276,0.027,0.0287,0.0293,0.0299,0.0302,0.031,0.0317,0.0241,0.0241,0.0241,0,0,0.0419,0.0399,0.0402,0.0386,0.0373,0.0374,0.0336,0.0339,0.0339,0.0299,0.0305,0.029,0.0274,0.0287,0.0292,0.0277,0.0321,0.0302,0.0307,0.0307,0.0314,0.0321,0.0328,0.0243,0.0243,0.0243,0,0,0.047,0.0455,0.0466,0.0454,0.0435,0.0415,0.0417,0.0392,0.0381,0.0386,0.0355,0.0354,0.0349,0.0338,0.0332,0.0377,0.0354,0.0376,0.041,0.0418,0.0424,0.0429,0.0446,0.0452,0.0379,0.0379,0.0379,0,0.0507,0.0507,0.0475,0.0479,0.0473,0.0434,0.0445,0.0435,0.0416,0.0413,0.0396,0.0388,0.0374,0.0383,0.0394,0.039,0.0392,0.0379,0.0426,0.0431,0.0435,0.045,0.0456,0.0382,0.0382,0.0381,0.0381,0,0.0554,0.0553,0.0565,0.0546,0.0541,0.0548,0.0518,0.0516,0.0496,0.0478,0.0483,0.0464,0.0454,0.0455,0.0436,0.0462,0.0453,0.0432,0.0404,0.0446,0.0459,0.0465,0.0386,0.0385,0.0384,0.0383,0,0,0.064,0.0601,0.0606,0.0597,0.0571,0.0571,0.0576,0.0566,0.0565,0.0552,0.0556,0.0551,0.0531,0.0524,0.0502,0.051,0.0546,0.0487,0.0486,0.0499,0.0573,0.059,0.0597,0.053,0.0531,0.0532,0.0574,0,0.0687,0.0694,0.0665,0.0679,0.0678,0.064,0.0645,0.063,0.0612,0.0609,0.0589,0.0586,0.0559,0.0555,0.056,0.054,0.056,0.0537,0.0534,0.0534,0.054,0.0604,0.0623,0.0664,0.058,0.058,0.0581,0,0.0744,0.0733,0.0747,0.0719,0.0718,0.0723,0.071,0.0707,0.0689,0.0675,0.0666,0.0641,0.0644,0.0616,0.062,0.0604,0.0601,0.059,0.0591,0.0591,0.0561,0.0607,0.0677,0.0684,0.0589,0.0588,0.0588,0,0.0806,0.0795,0.0801,0.0794,0.0762,0.0766,0.0753,0.0733,0.0728,0.0717,0.0713,0.0703,0.0697,0.069,0.0662,0.0644,0.0669,0.0639,0.0658,0.0659,0.0667,0.0667,0.0739,0.0663,0.0663,0.0663,0.0663,0,0.0863,0.0873,0.0829,0.0833,0.0843,0.0808,0.082,0.0803,0.0785,0.0785,0.0751,0.0753,0.0715,0.0712,0.069,0.0697,0.0694,0.0684,0.0678,0.0688,0.0689,0.0686,0.0683,0.0664,0.0664,0.0664,0.0663,0,0.0935,0.0906,0.091,0.0879,0.0871,0.088,0.0853,0.0856,0.0834,0.0835,0.0833,0.0801,0.0795,0.0766,0.0754,0.0739,0.0753,0.0741,0.076,0.0756,0.0778,0.0776,0.0851,0.0859,0.0777,0.0778,0.0779,0,0.0974,0.0981,0.0949,0.0946,0.0934,0.0931,0.0925,0.089,0.0886,0.0864,0.0869,0.0861,0.0852,0.0845,0.082,0.081,0.0798,0.0825,0.0797,0.0806,0.0799,0.08,0.08,0.0832,0.0833,0.0834,0.0834,0,0.1046,0.103,0.1023,0.101,0.1004,0.0992,0.0978,0.0978,0.094,0.0936,0.0929,0.0922,0.0909,0.0901,0.0886,0.0873,0.0848,0.0843,0.0847,0.0857,0.0868,0.0863,0.0777,0.0842,0.0841,0.0841,0.084,0.084,0.1103,0.1107,0.1085,0.1077,0.1063,0.105,0.1051,0.1029,0.1023,0.1009,0.0988,0.0984,0.0964,0.0942,0.093,0.0926,0.0912,0.0918,0.0919,0.0922,0.0926,0.0867,0.0923,0.0923,0.0923,0.0922,0.0922,0,0.1174,0.1157,0.115,0.1132,0.1125,0.11,0.1083,0.108,0.1076,0.1059,0.105,0.1042,0.1033,0.1007,0.0996,0.0997,0.0985,0.0996,0.0996,0.0993,0.094,0.0938,0.1006,0.1006,0.1005,0.1005,0.1005,0.1005,0.121,0.1215,0.1197,0.1194,0.1177,0.1172,0.1164,0.1152,0.1138,0.113,0.1122,0.1105,0.1084,0.107,0.1061,0.1053,0.1051,0.1065,0.1054,0.1005,0.0997,0.099,0.0987,0.1065,0.1065,0.1108,0.1108,0.1108]}]]